SCP
0 0 0 0 0 0 0 0 0 0 0 0 0 0 0 0 0 0 0 0 0 0 0 0 0 0 0 0 0 0 0 0 0 0 0 0 0 0 0 0 0 0 0
0 0 0 0 0 0 0 0 0 0 0 0 0 0 0 0 0 0 0 0 0 0 0 0 0 0 0 0 0 0 0 0 0 0 0 0 0 0 0 0 0 0 0
0 0 0 0 0 0 0 0 0 0 0 0 0 0 0 0 0 0 0 0 0 0 0 0 0 0 0 0 0 0 0 0 0 0 0 0 0 0 0 0 0 0 0
0 0 0 0 0 0 0 0 0 0 0 0 0 0 0 0 0 0 0 0 0 0 0 0 0 0 0 0 0 0 0 0 0 0 0 0 0 0 0 0 0 0 0
0 0 0 0 0 0 0 0 0 0 0 0 0 0 0 0 0 0 0 0 0 0 0 0 0 0 0 0 0 0 0 0 0 0 0 0 0 0 0 0 0 0 0
0 0 0 0 0 0 0 0 0 0 0 0 0 0 0 0 0 0 0 0 0 0 0 0 0 0 0 0 0 0 0 0 0 0 0 0 0 0 0 0 0 0 0
0 0 0 0 0 0 0 0 0 0 0 0 0 0 0 0 0 0 0 0 0 0 0 0 0 0 0 0 0 0 0 0 0 0 0 0 0 0 0 0 0 0 0
0 0 0 0 0 0 0 0 0 0 0 0 0 0 0 0 0 0 0 0 0 0 0 0 0 0 0 0 0 0 0 0 0 0 0 0 0 0 0 0 0 0 0
0 0 0 0 0 0 0 0 0 0 0 0 0 0 0 0 0 0 0 0 0 0 0 0 0 0 0 0 0 0 0 0 0 0 0 0 0 0 0 0 0 0 0
0 0 0 0 0 0 0 0 0 0 0 0 0 0 0 0 0 0 0 0 0 0 0 0 0 0 0 0 0 0 0 0 0 0 0 0 0 0 0 0 0 0 0
0 0 0 0 0 0 0 0 0 0 0 0 0 0 0 0 0 0 0 0 0 0 0 0 0 0 0 0 0 0 0 0 0 0 0 0 0 0 0 0 0 0 0
0 0 0 0 0 0 0 0 0 0 0 0 0 0 0 0 0 0 0 0 0 0 0 0 0 0 0 0 0 0 0 0 0 0 0 0 0 0 0 0 0 0 0
0 0 0 0 0 0 0 0 0 0 0 0 0 0 0 0 0 0 0 0 0 0 0 0 0 0 0 0 0 0 0 0 0 0 0 0 0 0 0 0 0 0 0
0 0 0 0 0 0 0 0 0 0 0 0 0 0 0 0 0 0 0 0 0 0 0 0 0 0 0 0 0 0 0 0 0 0 0 0 0 0 0 0 0 0 0
0 0 0 0 0 0 0 0 0 0 0 0 0 0 0 0 0 0 0 0 0 0 0 0 0 0 0 0 0 0 0 0 0 0 0 0 0 0 0 0 0 0 0
0 0 0 0 0 0 0 0 0 0 0 0 0 0 0 0 0 0 0 0 0 0 0 0 0 0 0 0 0 0 0 0 0 0 0 0 0 0 0 0 0 0 0
0 0 0 0 0 0 0 0 0 0 0 0 0 0 0 0 0 0 0 0 0 0 0 0 0 0 0 0 0 0 0 0 0 0 0 0 0 0 0 0 0 0 0
0 0 0 0 0 0 0 0 0 0 0 0 0 0 0 0 0 0 0 0 0 0 0 0 0 0 0 0 0 0 0 0 0 0 0 0 0 0 0 0 0 0 0
0 0 0 0 0 0 0 0 0 0 0 0 0 0 0 0 0 0 0 0 0 0 0 0 0 0 0 0 0 0 0 0 0 0 0 0 0 0 0 0 0 0 0
0 0 0 0 0 0 0 0 0 0 0 0 0 0 0 0 0 0 0 0 0 0 0 0 0 0 0 0 0 0 0 0 0 0 0 0 0 0 0 0 0 0 0
0 0 0 0 0 0 0 0 0 0 0 0 0 0 0 0 0 0 0 0 0 0 0 0 0 0 0 0 0 0 0 0 0 0 0 0 0 0 0 0 0 0 0
0 0 0 0 0 0 0 0 0 0 0 0 0 0 0 0 0 0 0 0 0 0 0 0 0 0 0 0 0 0 0 0 0 0 0 0 0 0 0 0 0 0 0
0 0 0 0 0 0 0 0 0 0 0 0 0 0 0 0 0 0 0 0 0 0 0 0 0 0 0 0 0 0 0 0 0 0 0 0 0 0 0 0 0 0 0
0 0 0 0 0 0 0 0 0 0 0 0 0 0 0 0 0 0 0 0 0 0 0 0 0 0 0 0 0 0 0 0 0 0 0 0 0 0 0 0 0 0 0
0 0 0 0 0 0 0 0 0 0 0 0 0 0 0 0 0 0 0 0 0 0 0 0 0 0 0 0 0 0 0 0 0 0 0 0 0 0 0 0 0 0 0
0 0 0 0 0 0 0 0 0 0 0 0 0 0 0 0 0 0 0 0 0 0 0 0 0 0 0 0 0 0 0 0 0 0 0 0 0 0 0 0 0 0 0
Wind_Speed
3 3 9 11 12 12 12 13 13 13 14 15 15 16 16 17 17 17 17 17 18 18 19 19 19 20 20 20 20 20 20 20 19 19 19 19 19 19 19 18 16 11 19
6 5 10 11 13 12 12 12 12 13 14 15 15 15 16 16 17 16 16 16 17 18 18 18 19 19 19 19 19 19 19 19 18 18 17 16 17 18 18 17 16 12 18
7 6 9 11 13 13 13 12 12 13 14 15 15 15 15 16 16 16 16 16 16 17 18 18 18 18 18 18 18 18 18 17 17 17 15 8 10 17 18 17 17 18 18
8 6 8 11 13 13 13 12 12 13 13 14 15 15 15 15 15 15 15 15 16 16 17 17 17 17 17 17 17 17 17 17 16 15 8 7 7 16 17 17 17 17 17
7 6 8 11 13 13 13 12 12 12 13 14 14 15 15 15 15 15 15 15 15 16 16 17 17 17 16 16 16 16 16 16 16 12 7 6 6 14 16 16 16 16 15
7 6 8 11 13 13 13 13 12 12 13 13 14 14 14 15 14 14 14 14 14 15 15 16 16 15 15 15 15 15 15 15 11 7 7 6 5 13 15 15 14 14 14
8 6 7 11 12 12 13 13 12 12 13 13 13 13 13 13 13 13 13 13 14 14 15 15 15 14 14 14 14 14 14 13 8 6 6 5 7 13 14 14 14 13 13
8 6 6 10 11 11 11 12 12 12 12 12 12 12 12 12 12 13 12 12 13 13 14 14 14 13 13 13 13 12 12 10 8 6 5 5 9 13 13 12 12 12 12
7 6 5 5 7 9 10 10 10 10 11 11 12 11 11 10 11 11 11 11 12 12 13 13 13 13 13 12 12 11 11 11 6 4 5 4 9 11 11 11 11 11 10
6 6 5 5 5 5 6 9 10 10 10 10 11 10 9 9 9 9 8 10 11 11 11 12 12 12 12 11 11 10 9 7 5 4 3 4 9 10 10 9 9 9 9
8 7 6 6 5 5 5 7 8 9 9 9 8 10 8 5 5 5 6 8 9 10 10 10 11 11 10 10 9 8 6 3 3 3 3 5 8 8 8 7 7 7 7
11 10 7 7 6 5 5 4 4 4 5 5 4 5 4 3 3 4 6 7 8 8 8 9 10 9 7 4 5 6 3 3 2 2 3 6 6 6 6 6 5 5 5
11 11 10 8 7 6 4 4 3 3 3 4 5 5 4 3 3 3 2 3 4 5 4 5 5 3 3 3 2 2 2 2 1 2 3 6 6 6 5 5 5 5 5
11 12 11 10 8 6 5 5 4 3 3 3 4 5 4 3 3 2 2 2 2 2 2 2 2 3 3 3 2 2 2 1 1 1 3 6 7 7 7 7 6 6 6
11 12 12 11 10 8 6 5 5 5 4 4 4 4 4 3 3 3 2 2 2 1 2 1 1 1 2 2 2 1 1 2 2 2 2 6 7 8 9 9 9 9 9
12 12 11 12 11 9 8 6 6 6 5 4 4 5 5 4 4 3 3 2 2 2 2 1 1 1 1 1 2 2 2 2 3 3 3 4 6 8 9 10 11 12 12
11 10 11 11 10 10 9 8 6 6 5 5 5 5 6 5 5 4 3 3 2 2 2 1 1 1 1 1 2 3 3 3 4 4 4 3 3 6 8 10 11 11 12
9 10 11 10 11 11 9 8 6 6 6 5 5 5 6 6 6 5 4 3 3 3 2 2 1 0 1 1 2 3 3 3 5 4 3 3 3 3 5 8 10 11 12
11 11 11 11 12 12 10 7 6 6 6 5 5 5 6 7 7 5 4 4 4 3 3 2 2 2 2 2 3 3 4 4 4 4 4 4 3 3 3 5 7 8 10
10 10 11 11 11 10 8 6 5 5 6 5 6 6 7 7 8 6 4 5 5 3 3 3 3 2 2 2 2 4 4 4 3 3 3 3 2 2 2 3 3 4 8
10 11 12 13 12 10 8 8 8 8 6 6 6 7 8 8 8 7 5 5 5 5 5 5 3 3 2 1 1 3 3 2 2 2 2 2 2 2 2 3 2 2 3
13 14 13 14 13 12 10 8 5 5 5 6 6 7 9 9 8 7 7 6 6 5 5 5 4 3 2 3 2 1 3 4 3 1 1 1 2 2 2 3 3 3 3
14 16 14 15 15 14 11 6 4 4 3 5 6 6 8 9 9 8 9 7 7 7 6 7 7 6 4 3 3 3 2 2 3 3 2 1 2 2 2 3 3 3 3
15 13 14 14 14 13 13 10 10 10 9 8 6 6 7 8 9 9 9 8 8 6 6 6 6 5 4 3 2 3 3 2 1 4 3 2 2 2 2 3 3 3 3
11 10 11 12 13 13 13 14 13 11 8 5 5 7 8 7 8 8 8 8 7 6 6 6 6 6 5 4 4 3 2 2 2 3 5 3 2 2 2 2 2 2 3
7 7 8 11 12 12 14 15 15 14 10 8 7 8 6 5 5 7 7 7 7 6 6 6 6 6 5 4 3 3 3 3 3 3 4 3 4 3 2 1 1 2 2
Wind_Direction
163 172 141 124 115 109 105 101 97 96 94 91 88 86 84 83 82 81 81 82 82 81 80 80 80 79 78 76 74 73 71 69 67 66 67 68 68 67 66 64 60 54 60
147 153 135 125 119 113 108 103 100 97 95 94 91 89 87 86 84 84 84 84 85 84 82 83 83 82 81 79 78 76 74 71 68 65 62 62 67 66 64 62 62 62 62
135 136 130 127 122 117 111 107 105 101 98 97 94 92 90 88 87 86 86 86 87 86 84 83 83 84 84 82 80 77 75 72 69 65 58 43 58 66 64 62 61 62 61
132 127 127 128 126 122 116 111 107 104 101 98 97 96 94 91 90 89 88 87 88 87 85 83 83 85 85 83 81 78 75 72 67 63 49 39 49 65 63 61 60 58 58
122 122 129 130 131 126 121 116 111 108 106 102 100 98 95 93 91 90 89 89 88 87 86 85 84 85 86 84 82 79 76 72 66 56 43 38 43 65 64 62 60 58 56
124 126 135 134 136 131 128 123 118 114 111 107 103 102 98 96 95 93 91 90 89 89 87 85 85 86 87 85 84 81 78 72 60 45 39 35 42 64 64 63 61 58 56
134 130 138 137 138 135 134 129 124 119 115 113 109 106 105 103 100 97 95 93 92 91 89 87 86 87 87 87 85 82 78 73 60 46 36 31 52 65 64 62 60 56 54
140 132 132 138 138 138 136 134 129 124 120 119 116 113 110 108 106 103 101 97 96 93 90 88 87 88 88 89 86 82 75 68 60 46 36 31 60 63 62 59 56 54 52
137 131 128 133 137 138 137 134 131 128 125 121 119 113 107 105 106 105 103 102 100 97 93 89 87 87 87 87 86 82 77 69 57 41 34 29 55 60 59 55 53 52 50
143 142 138 132 129 129 132 135 132 130 126 121 117 110 105 102 102 100 99 103 103 100 96 92 88 86 84 83 83 81 74 62 51 40 24 30 48 55 55 53 50 47 45
165 163 155 146 137 132 132 138 134 131 128 122 119 118 107 97 95 97 104 104 103 101 98 93 88 85 78 75 76 75 68 55 48 32 10 26 42 46 48 45 42 39 36
180 179 173 165 154 146 141 134 132 128 129 125 125 121 112 109 105 101 104 103 97 90 89 88 84 78 73 61 59 63 57 55 42 15 354 7 22 30 32 29 23 19 17
182 183 183 177 167 158 149 149 146 136 134 137 140 136 125 112 104 95 90 87 83 79 69 70 67 61 65 65 61 58 55 51 23 350 337 344 349 353 359 358 353 346 342
180 189 187 183 177 170 162 164 163 161 160 160 161 153 141 134 133 131 124 117 99 86 88 72 67 61 58 57 61 57 42 29 339 323 312 324 326 324 326 327 323 319 313
186 190 190 186 184 177 172 175 177 180 179 174 168 169 161 155 159 157 153 145 136 118 114 102 82 66 48 33 30 30 351 327 307 300 301 308 311 311 311 315 315 313 309
192 192 188 190 188 181 183 185 185 186 183 179 181 180 174 167 166 166 169 171 171 161 151 143 134 90 19 358 339 332 311 302 293 291 286 298 303 305 307 309 311 314 314
193 188 189 191 188 188 190 190 188 188 184 189 189 183 181 177 174 172 177 186 188 170 156 138 121 66 345 329 311 305 297 290 286 284 285 283 292 300 303 306 309 312 315
189 188 191 190 191 194 193 190 189 190 191 194 188 183 187 186 179 176 184 195 182 165 164 168 172 211 280 288 290 292 288 286 282 279 280 280 282 287 300 306 310 314 316
194 191 190 191 192 196 195 191 191 190 196 196 188 188 190 190 186 184 193 193 174 170 180 183 187 195 244 268 281 288 283 276 279 284 284 282 279 281 285 304 311 312 316
196 194 194 195 195 191 189 187 191 197 202 197 195 196 191 193 192 190 194 190 175 177 190 193 202 204 230 259 287 287 278 276 280 279 281 286 287 291 299 307 312 315 320
198 199 199 198 196 188 189 195 199 206 202 201 202 199 197 195 192 192 192 187 183 194 201 193 188 206 227 192 296 309 304 285 282 289 297 306 326 323 329 323 319 318 318
206 206 204 204 198 195 198 195 190 184 193 198 197 200 200 198 195 194 196 194 193 198 199 194 185 185 200 174 180 299 322 331 332 335 337 340 333 338 346 338 331 322 323
210 208 207 206 202 200 194 180 167 167 167 188 200 203 203 199 197 197 200 197 195 196 203 202 195 192 201 193 190 186 221 269 307 317 328 336 340 345 335 330 329 330 338
216 210 207 204 202 198 191 189 188 198 205 204 195 195 196 198 200 201 202 201 199 199 205 203 197 194 185 197 195 213 217 195 247 307 309 306 318 312 313 317 326 337 348
211 204 204 201 201 196 195 197 198 207 209 189 180 189 198 200 203 203 203 201 201 201 203 195 190 193 193 193 184 178 197 208 212 238 286 305 314 281 291 301 320 339 355
201 196 195 196 202 196 197 200 202 205 199 187 189 194 197 194 199 204 200 198 197 197 197 193 191 192 195 193 187 176 177 182 195 211 255 287 303 299 310 318 341 347 359